Hourly Data Report for September 08, 2017

All times are specified in Local Standard Time (LST). Add 1 hour to adjust for Daylight Saving Time where and when it is observed.

SUSSEX FOUR CORNERS
NEW BRUNSWICK

45°44'30.048" N
65°31'44.039" W
47.00 m
8105210
71656
ASF

Download Data

Hourly Data (September 2017)
Hourly Data Report for September 8, 2017
Temp Definition
°C
Dew Point Temp Definition
°C
Rel Hum Definition
%
Wind Dir Definition
10's deg

Wind Spd Definition
km/h
Visibility Definition
km
Stn Press Definition
kPa
Hmdx Definition


Wind Chill Definition


Weather Definition


TIME
00:00 15.1 14.0 93 22 12   100.33     LegendNANA
01:00 14.8 14.1 96 20 16   100.36     LegendNANA
02:00 14.7 14.1 96 20 11   100.37     LegendNANA
03:00 14.6 13.9 95 21 13   100.40     LegendNANA
04:00 14.4 13.6 95 20 14   100.42     LegendNANA
05:00 14.2 13.4 95 22 6   100.40     LegendNANA
06:00 14.0 13.3 95 22 9   100.51     LegendNANA
07:00 14.3 13.6 95 18 7   100.63     LegendNANA
08:00 15.4 14.0 92 21 13   100.69     LegendNANA
09:00 16.2 14.1 88 21 12   100.76     LegendNANA
10:00 18.9 14.4 75 22 15   100.78     LegendNANA
11:00 20.5 13.9 66 21 16   100.81     LegendNANA
12:00 21.7 13.3 59 20 17   100.80 25   LegendNANA
13:00 22.2 12.2 53 21 16   100.80 25   LegendNANA
14:00 20.6 12.3 59 21 10   100.82     LegendNANA
15:00 22.3 12.5 54 20 20   100.85 25   LegendNANA
16:00 20.7 11.4 55 20 26   100.90     LegendNANA
17:00 19.6 11.3 59 21 23   100.93     LegendNANA
18:00 18.1 10.9 63 23 11   100.97     LegendNANA
19:00 15.1 10.3 73 21 13   101.01     LegendNANA
20:00 13.6 10.6 82 20 8   101.10     LegendNANA
21:00 13.0 10.9 87 24 5   101.15     LegendNANA
22:00 12.2 10.9 92 0 1   101.19     LegendNANA
23:00 11.0 10.3 95 19 1   101.20     LegendNANA

Notes on Data Quality.

Legend

  • E = Estimated
  • M = Missing
  • NA = Not Available
  • ‡ = Partner data that is not subject to review by the National Climate Archives
Date modified: